Regional Weather Roundup
Issued by NWS Spokane, WA

Home | Current Version | Previous Version | Text Only | Print | Product List | Glossary On
Versions: 1 2 3 4 5 6 7 8 9 10 11 12 13 14 15 16 17 18 19 20 21 22 23 24 25 26 27 28 29 30 31 32 33 34 35 36 37 38 39 40 41 42 43 44 45 46 47 48 49 50
000
NZUS01 KOTX 271010
RWROTX
EASTERN WASHINGTON/NORTHERN IDAHO ROUNDUP
NATIONAL WEATHER SERVICE, SPOKANE WA
300 AM PDT FRI MAR 27 2015

Note: "fair" indicated few or no clouds below 12,000 feet with no
significant weather and/or obstructions to visibility.

...NORTHEAST WASHINGTON AND NORTHERN IDAHO PANHANDLE...

CITY           SKY/WX    TMP DP  RH WIND       PRES   REMARKS
SPOKANE INTL   PTCLDY    46  44  93 NE8       30.16F
SPOKANE DOWNTO CLEAR     43  41  93 CALM      30.18S
COEUR D ALENE  CLEAR     41  39  93 E7        30.19S
DEER PARK      CLEAR     43  42  97 N5        30.18S
SANDPOINT      FOG       36  36 100 CALM      30.20F VSB 1/2
BONNERS FERRY  FAIR      41  39  93 CALM      30.20F

...SOUTHEAST WASHINGTON AND SOUTHERN IDAHO PANHANDLE...

CITY           SKY/WX    TMP DP  RH WIND       PRES   REMARKS
WALLA WALLA    CLEAR     53  46  77 SE7       30.10F
PULLMAN/MOSCOW CLEAR     49  43  80 E12       30.17F
LEWISTON       CLEAR     52  46  80 E9        30.15F
LOWELL           N/A     42  40  92 N5        30.26F

...COLUMBIA BASIN...

CITY           SKY/WX    TMP DP  RH WIND       PRES   REMARKS
EPHRATA        CLEAR     49  46  90 N8        30.12F
MOSES LAKE     CLEAR     45  43  93 N8        30.13F
TRI CITIES     CLEAR     46  44  93 NW3       30.11F
HERMISTON      CLEAR     47  44  90 S3        30.09F
PENDLETON      CLEAR     51  44  77 CALM      30.09F

...EAST SLOPES CASCADES...

CITY           SKY/WX    TMP DP  RH WIND       PRES   REMARKS
THE DALLES     CLEAR     49  47  93 E5        30.10F
YAKIMA         CLEAR     45  41  86 W6        30.12F
ELLENSBURG     CLEAR     45  41  86 E6        30.13F
WENATCHEE      CLEAR     52  44  74 W10       30.13F
OMAK           PTCLDY    42  39  89 W6        30.15F

...SOUTHERN BRITISH COLUMBIA...

CITY           SKY/WX    TMP DP  RH WIND       PRES   REMARKS
PENTICTON      MOCLDY    46  43  87 CALM      30.16F
CRANBROOK      PTCLDY    37  32  81 CALM      30.17S

...WESTERN MONTANA...

CITY           SKY/WX    TMP DP  RH WIND       PRES   REMARKS
MISSOULA       CLEAR     34  33  96 CALM      30.26F

...NEIGHBORING CITIES...

CITY           SKY/WX    TMP DP  RH WIND       PRES   REMARKS
SEATTLE        PTCLDY    52  48  86 NE6       30.09F
CALGARY        MOCLDY    48  28  46 CALM      29.97F



USA.gov is the U.S. government's official web portal to all federal, state and local government web resources and services.